Flag for Canada Weather past 2 weeks in Kings County, Nova Scotia, Canada

Now
45 °F

Cool.


Feels Like: 44 °F
Forecast: 33 / 56 °F
Wind: 3 mph from Southwest

Location: McNabs Island - AUT


UV Index: 3 (Moderate)

Visibility: N/A


Pressure: 30.19 "Hg

Humidity: 56%

Dew point: 30 °F

Location of Kings CountyLocation

Historic Weather in Kings County

°F

Kings County temperature yesterday

Maximum temperature yesterday: 50 °F (at 5:00 PM)
Minimum temperature yesterday: 33 °F (at 6:00 AM)
Average temperature yesterday: 41 °F

Past Weeks' High & Low Weather Summary

 TemperatureHumidityPressure
High58 °F (Apr 15, 2:00 PM)100% (Apr 12, 12:00 PM)30.80 "Hg (Apr 12, 12:00 PM)
Low27 °F (Apr 18, 6:00 AM)25% (Apr 10, 2:00 PM)29.33 "Hg (Apr 9, 5:00 AM)
Average41 °F75%30.12 "Hg
* Reported Apr 6 10:00 AM — Apr 21 10:00 AM, Kings County, Weather by CustomWeather, © 2014

Note: Actual official high and low records may vary slightly from our data, if they occured in-between our weather recording intervals... More about our weather records

Advertising

Historic Weather Conditions — Data for Previous 24 hours

 ConditionsComfort  
Time TempWeatherWind HumidityBarometerVisibility
10:00 AM
Apr 21
45 °FCool.3 mph56%30.19 "HgN/A
9:00 AM42 °FQuite cool.3 mph74%30.22 "HgN/A
8:00 AM37 °FChilly.2 mph86%30.23 "HgN/A
7:00 AM32 °FChilly.1 mph97%30.24 "HgN/A
6:00 AM32 °FChilly.No wind97%30.25 "HgN/A
5:00 AM34 °FChilly.No wind93%30.26 "HgN/A
4:00 AM33 °FChilly.No wind93%30.27 "HgN/A
3:00 AM35 °FChilly.2 mph87%30.30 "HgN/A
2:00 AM35 °FChilly.No wind88%30.32 "HgN/A
1:00 AM37 °FChilly.3 mph87%30.33 "HgN/A
12:00 AM37 °FChilly.1 mph84%30.35 "HgN/A
11:00 PM
Apr 20
38 °FChilly.1 mph79%30.36 "HgN/A
10:00 PM37 °FChilly.1 mph79%30.37 "HgN/A
9:00 PM38 °FChilly.2 mph78%30.37 "HgN/A
8:00 PM42 °FQuite cool.8 mph66%30.36 "HgN/A
7:00 PM49 °FCool.2 mph38%30.35 "HgN/A
6:00 PM50 °FCool.5 mph37%30.34 "HgN/A
5:00 PM50 °FCool.5 mph39%30.35 "HgN/A
4:00 PM49 °FCool.6 mph39%30.36 "HgN/A
3:00 PM48 °FCool.6 mph43%30.37 "HgN/A
2:00 PM47 °FCool.6 mph49%30.40 "HgN/A
1:00 PM42 °FQuite cool.7 mph58%30.40 "HgN/A
12:00 PM42 °FQuite cool.6 mph61%30.41 "HgN/A
11:00 AM41 °FQuite cool.6 mph63%30.41 "HgN/A
Weather by CustomWeather, © 2014

See weather overview